Location: DARK SKY Beskydy - Park tmavé oblohy, www.darkskybeskydy.cz
(49.4926°N, 18.5016°E)
Time: 01:23:44
(UTC+02:00)

TIGRISAT - Pass Details

Date: 13 August 2024
Orbit: 591 x 668 km, 97.7° (Epoch: 14 September)

Event Time Altitude Azimuth Distance (km) Brightness Sun altitude
Rises 02:55:30 0° 117° (ESE) 2,906 ? -20.3°
Reaches altitude 10° 02:58:28 10° 95° (E) 1,988 ? -20.0°
Maximum altitude 03:00:59 15° 59° (ENE) 1,649 ? -19.8°
Drops below altitude 10° 03:03:29 10° 23° (NNE) 1,970 ? -19.6°
Sets 03:06:24 0° 1° (N) 2,866 ? -19.3°
